Location: Raleigh
(35.7720°N, 78.6390°W)
Time: 14:36:57
(UTC-04:00)

JAS-2 - Visible Passes

Search period start: 26 August 2016 00:00
Search period end: 05 September 2016 00:00
Orbit: 800 x 1322 km, 98.6° (Epoch: 25 August)

Date Brightness Start Highest point End Pass type
(mag) Time Alt. Az. Time Alt. Az. Time Alt. Az.
26 Aug 11.3 01:18:35 10° NNE 01:21:37 30° NNE 01:21:37 30° NNE visible
26 Aug 11.6 03:05:10 10° NNW 03:08:05 19° NW 03:08:05 19° NW visible
27 Aug 11.9 00:24:28 10° NE 00:25:49 15° NE 00:25:49 15° NE visible
27 Aug 11.2 02:08:48 10° N 02:12:18 32° NNW 02:12:18 32° NNW visible
28 Aug 11.4 01:13:36 10° NNE 01:16:30 28° NNE 01:16:30 28° NNE visible
28 Aug 11.6 02:59:58 10° NNW 03:02:59 20° NW 03:02:59 20° NW visible
29 Aug 12.0 00:19:35 10° NE 00:20:43 14° NE 00:20:43 14° NE visible
29 Aug 11.3 02:03:45 10° N 02:07:11 31° N 02:07:11 31° N visible
30 Aug 11.5 01:08:37 10° NNE 01:11:24 26° NNE 01:11:24 26° NNE visible
30 Aug 11.6 02:54:49 10° NNW 02:57:52 21° NW 02:57:52 21° NW visible
31 Aug 12.1 00:14:45 10° NE 00:15:36 13° NE 00:15:36 13° NE visible
31 Aug 11.3 01:58:42 10° N 02:02:05 31° N 02:02:05 31° N visible
01 Sep 11.6 01:03:40 10° NNE 01:06:17 25° NNE 01:06:17 25° NNE visible
01 Sep 11.6 02:49:40 10° NNW 02:52:46 22° NW 02:52:46 22° NW visible
02 Sep 12.2 00:09:55 10° NE 00:10:30 12° NE 00:10:30 12° NE visible
02 Sep 11.4 01:53:41 10° N 01:56:58 30° N 01:56:58 30° N visible
02 Sep 12.1 03:43:21 10° NW 03:43:27 10° NW 03:43:27 10° NW visible
03 Sep 11.7 00:58:44 10° NNE 01:01:11 23° NNE 01:01:11 23° NNE visible
03 Sep 11.6 02:44:33 10° N 02:47:40 22° NNW 02:47:40 22° NNW visible
04 Sep 12.3 00:05:07 10° NE 00:05:23 11° NE 00:05:23 11° NE visible
04 Sep 11.5 01:48:41 10° N 01:51:52 29° N 01:51:52 29° N visible
04 Sep 12.1 03:37:26 10° NW 03:38:21 11° NW 03:38:21 11° NW visible
